{"data":{"norad_id":68494,"intl_designator":"2026-067CG","name":"ICEYE-X71","alt_names":[],"object_type":"PAYLOAD","status":"ACTIVE","operator":null,"country":"FIN","launch_date":"2026-03-30","launch_site_code":"AFWTR","launch_vehicle":null,"mission":null,"orbit_class":"UNKNOWN","rcs_meters":null,"size_class":null,"mass_kg":null,"dimensions":null,"purposes":[],"wikipedia_slug":null,"has_3d_model":false,"image_url":null,"decayed_at":null,"tle_current":{"epoch":"2026-05-24T20:25:11.454528Z","epoch_age_seconds":91432,"freshness":"FRESH","line1":"1 68494U 26067CG  26144.85082702  .00001951  00000+0  20030-3 0  9994","line2":"2 68494  97.7599 103.4508 0003786  94.6774 265.4877 14.91534553  8244","mean_motion":14.91534553,"eccentricity":0.0003786,"inclination_deg":97.7599,"raan_deg":103.4508,"arg_perigee_deg":94.6774,"mean_anomaly_deg":265.4877,"bstar":0.0002003,"rev_number":824,"period_min":96.544863617383,"perigee_km":590.51066534988,"apogee_km":595.7893238622,"semimajor_km":6971.286994606,"source":"CELESTRAK","updated_at":"2026-05-25T13:38:07.876934Z"}}}